FW9372 Weather Reports


Display with metric or nautical units.
time (UTC)temp
F
wind
direction
speed
MPH
gust
MPH
rain 1hr
in
rain 24hr
in
rain mn
in
humidity
%
barometer
mb
20260510090114 59 0 0.0 0.0 0.00 0.00 0.00 85 1010.4
20260510084610 56 0 0.0 0.0 0.00 0.00 0.00 91 1010.3
20260510083057 53 0 0.0 0.0 0.00 0.00 0.00 93 1010.0
20260510081604 53 0 0.0 0.0 0.00 0.00 0.00 93 1009.7
20260510080104 53 0 0.0 0.0 0.00 0.00 0.00 93 1009.5
20260510074556 54 0 0.0 0.0 0.00 0.00 0.00 92 1009.4
20260510073058 54 0 0.0 0.0 0.00 0.00 0.00 93 1009.4
20260510071602 54 0 0.0 0.0 0.00 0.00 0.00 94 1009.2
20260510070110 53 0 0.0 0.0 0.00 0.00 0.00 93 1009.1
20260510064557 54 0 0.0 0.0 0.00 0.00 0.00 93 1009.1
20260510063057 54 0 0.0 0.0 0.00 0.00 0.00 92 1009.1
20260510061559 55 0 0.0 0.0 0.00 0.00 0.00 92 1009.1
20260510060100 55 0 0.0 0.0 0.00 0.00 0.00 93 1009.2
20260510054601 55 0 0.0 0.0 0.00 0.00 0.00 91 1009.2
20260510053059 55 0 0.0 0.0 0.00 0.00 0.00 92 1009.3
20260510051607 56 0 0.0 0.0 0.00 0.00 0.00 92 1009.6
20260510050108 55 0 0.0 0.0 0.00 0.00 0.00 91 1009.6
20260510044600 56 0 0.0 0.0 0.00 0.00 0.00 92 1009.6
20260510043108 55 0 0.0 0.0 0.00 0.00 0.00 91 1009.5
20260510041611 55 0 0.0 0.0 0.00 0.00 0.00 91 1009.4
20260510040118 56 0 0.0 0.0 0.00 0.00 0.00 90 1009.4
20260510034603 56 0 0.0 0.0 0.00 0.00 0.00 89 1009.4
20260510033106 57 0 0.0 0.0 0.00 0.00 0.00 89 1009.4
20260510031609 57 0 0.0 0.0 0.00 0.00 0.00 89 1009.5
20260510030107 58 0 0.0 0.0 0.00 0.00 0.00 89 1009.6
20260510024600 57 0 0.0 0.0 0.00 0.00 0.00 88 1009.5
20260510023101 58 0 0.0 0.0 0.00 0.00 0.00 86 1009.3
20260510021646 59 0 0.0 0.0 0.00 0.00 0.00 85 1009.2
20260510014600 61 0 0.0 0.0 0.00 0.00 0.00 80 1008.6
20260510013116 62 0 0.0 0.0 0.00 0.00 0.00 81 1008.3
20260510011559 63 0 0.0 0.0 0.00 0.00 0.00 79 1008.1
20260510004601 66 0 0.0 0.0 0.00 0.00 0.00 72 1007.7
20260510003106 67 0 0.0 0.0 0.00 0.00 0.00 69 1007.6
20260510001603 70 0 0.0 0.0 0.00 0.00 0.00 62 1007.4
20260510000058 75 0 0.0 0.0 0.00 0.00 0.00 55 1007.2
20260509234558 76 0 0.0 0.0 0.00 0.00 0.00 53 1007.0
20260509233101 76 0 0.0 0.0 0.00 0.00 0.00 47 1006.9
20260509231603 77 0 0.0 2.0 0.00 0.00 0.00 48 1006.9
20260509230059 77 0 0.0 5.0 0.00 0.00 0.00 46 1006.8
20260509224556 78 0 0.0 2.0 0.00 0.00 0.00 46 1006.8
20260509223057 78 0 0.0 0.0 0.00 0.00 0.00 44 1006.8
20260509221556 77 0 1.0 8.0 0.00 0.00 0.00 46 1006.8
20260509214559 77 0 0.0 3.0 0.00 0.00 0.00 45 1006.8
20260509213114 77 0 0.0 3.0 0.00 0.00 0.00 47 1006.8
20260509211604 77 268 0.0 3.0 0.00 0.00 0.00 53 1006.8
20260509210056 77 0 0.0 9.0 0.00 0.00 0.00 50 1006.8
20260509204555 77 0 0.0 3.0 0.00 0.00 0.00 47 1007.0
20260509203101 76 0 0.0 4.0 0.00 0.00 0.00 48 1007.0
20260509201604 76 193 0.0 5.0 0.00 0.00 0.00 53 1007.2
20260509200100 76 223 0.0 4.0 0.00 0.00 0.00 57 1007.3
20260509194601 75 191 0.0 6.0 0.00 0.00 0.00 53 1007.4
20260509193058 74 0 0.0 5.0 0.00 0.00 0.00 56 1007.5
20260509191608 74 0 0.0 6.0 0.00 0.00 0.00 56 1007.6
20260509190056 74 0 0.0 3.0 0.00 0.00 0.00 60 1007.7
20260509184609 73 0 0.0 3.0 0.00 0.00 0.00 59 1007.7
20260509183101 73 0 0.0 7.0 0.00 0.00 0.00 63 1007.6
20260509181605 72 0 0.0 7.0 0.00 0.00 0.00 62 1007.7
20260509180116 72 0 0.0 2.0 0.00 0.00 0.00 61 1007.8
20260509174558 72 0 0.0 1.0 0.00 0.00 0.00 62 1007.9
20260509173106 71 0 0.0 5.0 0.00 0.00 0.00 67 1008.0
20260509171557 70 0 0.0 7.0 0.00 0.00 0.00 65 1008.0
20260509170057 70 0 0.0 1.0 0.00 0.00 0.00 65 1008.2
20260509164555 70 0 0.0 1.0 0.00 0.00 0.00 69 1008.1
20260509163104 69 221 0.0 1.0 0.00 0.00 0.00 66 1008.1
20260509161603 69 0 0.0 2.0 0.00 0.00 0.00 65 1008.1
20260509154559 69 0 0.0 0.0 0.00 0.00 0.00 67 1007.6
20260509153103 67 0 0.0 1.0 0.00 0.00 0.00 69 1007.3
20260509151557 68 0 0.0 0.0 0.00 0.00 0.00 70 1007.4
20260509150058 67 0 0.0 0.0 0.00 0.00 0.00 71 1007.3
20260509144555 66 0 0.0 1.0 0.00 0.00 0.00 74 1007.2
20260509143059 65 0 0.0 0.0 0.00 0.00 0.00 77 1007.2
20260509141604 63 0 0.0 1.0 0.00 0.00 0.00 78 1007.1
20260509140107 62 0 0.0 2.0 0.00 0.00 0.00 79 1007.2
20260509134558 62 0 0.0 1.0 0.00 0.00 0.00 80 1007.1
20260509133057 61 0 0.0 0.0 0.00 0.00 0.00 83 1006.9
20260509131559 59 0 0.0 0.0 0.00 0.00 0.00 87 1006.9
20260509130055 57 0 0.0 0.0 0.00 0.00 0.00 90 1007.0
20260509124557 56 0 0.0 0.0 0.00 0.00 0.00 92 1006.9
20260509123058 55 0 0.0 0.0 0.00 0.00 0.00 93 1006.8
20260509121556 54 0 0.0 0.0 0.00 0.00 0.00 95 1006.6
20260509120058 54 0 0.0 0.0 0.00 0.00 0.00 95 1006.6
20260509114556 53 0 0.0 0.0 0.00 0.00 0.00 95 1006.5
20260509113054 53 0 0.0 0.0 0.00 0.00 0.00 94 1006.5
20260509111559 53 0 0.0 0.0 0.00 0.00 0.00 93 1006.0
20260509110057 53 0 0.0 0.0 0.00 0.00 0.00 93 1005.8
20260509104602 53 0 0.0 0.0 0.00 0.00 0.00 93 1006.0
20260509103106 53 0 0.0 0.0 0.00 0.00 0.00 91 1005.7
20260509101613 54 0 0.0 0.0 0.00 0.00 0.00 90 1005.7
20260509100056 54 0 0.0 0.0 0.00 0.00 0.00 89 1005.8
20260509094601 54 0 0.0 0.0 0.00 0.00 0.00 88 1005.5
20260509093059 55 0 0.0 0.0 0.00 0.00 0.00 86 1005.5
20260509091558 55 0 0.0 0.0 0.00 0.00 0.00 85 1006.0